SAUDISAT 1A 1 26545U 00057A 10248.31721522 .00000073 00000-0 28320-4 0 6202 2 26545 064.5572 185.8289 0034638 207.7226 152.2044 14.80726687537107 UNISAT 1 26547U 00057C 10247.26197271 +.00000205 +00000-0 +43464-4 0 06657 2 26547 064.5549 170.1580 0041047 207.5161 152.3776 14.82595246537348 SAUDISAT 1B 1 26549U 00057E 10249.16516304 .00000004 00000-0 19832-4 0 7113 2 26549 064.5565 202.3258 0039125 207.5731 152.3239 14.79577413536845 MOZHAYETS 1 27560U 02054B 10249.08054951 .00000158 00000-0 46414-4 0 6656 2 27560 097.9203 073.9782 0041887 261.5288 098.1157 14.55123578411590 SAUDISAT 1C 1 27607U 02058C 10249.08324438 .00000051 00000-0 29776-4 0 2629 2 27607 064.5580 110.8010 0039939 041.2752 319.1352 14.71571890414283 UNISAT 2 1 27608U 02058D 10248.98826927 .00000084 00000-0 33157-4 0 2701 2 27608 064.5574 070.1812 0029715 013.6002 346.5903 14.74530339415123 SAUDISAT 2 1 28371U 04025F 10249.11670922 -.00000017 00000-0 62545-5 0 9723 2 28371 097.9693 278.6577 0027482 103.6914 256.7372 14.52981708328128 UNISAT 3 1 28373U 04025H 10248.67777310 .00000095 00000-0 39428-4 0 7405 2 28373 098.0392 245.8256 0071256 184.8707 175.1803 14.43408419326402 SSETI-EXPRESS 1 28894U 05043E 10249.10736546 .00000042 00000-0 18265-4 0 8598 2 28894 097.9970 130.2098 0018374 036.5294 323.7160 14.59749233258902 SAUDISAT 3 1 31118U 07012B 10248.98750405 -.00000029 00000-0 32153-5 0 5602 2 31118 097.9627 316.8295 0014133 258.8024 101.1585 14.68057463181589